This is the latest recevied weather packets stored in our database for station/object KO5S. If no packets are shown the sender has not sent any weather packets the latest 10 day(s).
| Time | Temp. | Humidity | Pressure | Rain* | Wind** | Luminosity | Snow |
|---|---|---|---|---|---|---|---|
| 1777688316 | 12.78° C | 93% | 1009.8 hPa | 9.14 mm | - | - | - |
| 1777685896 | 13.33° C | 93% | 1008.6 hPa | 2.79 mm | - | - | - |
| 1777683496 | 13.33° C | 93% | 1007.8 hPa | 1.78 mm | - | - | - |
| 1777675096 | 14.44° C | 91% | 1007.9 hPa | 6.86 mm | - | - | - |
| 1777670896 | 16.67° C | 91% | 1007.1 hPa | 1.52 mm | - | - | - |
| 1777669695 | 17.22° C | 90% | 1006.9 hPa | 1.27 mm | - | - | - |
| 1777667295 | 17.78° C | 89% | 1006.6 hPa | 0 mm | - | - | - |
| 1777666096 | 17.78° C | 89% | 1006.3 hPa | 0 mm | - | - | - |
| 1777652295 | 17.78° C | 91% | 1009.4 hPa | 0 mm | - | - | - |
| 1777651695 | 17.78° C | 91% | 1009.6 hPa | 0 mm | - | - | - |
| 1777649896 | 17.78° C | 92% | 1009.8 hPa | 0 mm | - | - | - |
| 1777648115 | 17.78° C | 92% | 1009.6 hPa | 0 mm | - | - | - |
| 1777647495 | 18.33° C | 92% | 1009.7 hPa | 0 mm | - | - | - |
| 1777645695 | 17.78° C | 92% | 1009.3 hPa | 0 mm | - | - | - |
| 1777642096 | 17.78° C | 93% | 1009 hPa | 0 mm | - | - | - |
| 1777636115 | 17.22° C | 92% | 1008.6 hPa | 0.51 mm | - | - | - |
| 1777633695 | 17.78° C | 91% | 1008.5 hPa | 0 mm | - | - | - |
| 1777632495 | 17.78° C | 91% | 1007.7 hPa | 0 mm | - | - | - |
| 1777629495 | 17.78° C | 91% | 1007.8 hPa | 0 mm | - | - | - |
| 1777628295 | 17.78° C | 91% | 1007.8 hPa | 0 mm | - | - | - |
| 1777621115 | 18.33° C | 92% | 1008.2 hPa | 0 mm | - | - | - |
| 1777619295 | 18.33° C | 92% | 1008.4 hPa | 0 mm | - | - | - |
| 1777616295 | 18.89° C | 92% | 1009.1 hPa | 0 mm | - | - | - |
| 1777614495 | 18.89° C | 92% | 1009.1 hPa | 0 mm | - | - | - |
| 1777613295 | 19.44° C | 92% | 1008.9 hPa | 0 mm | - | - | - |
* Rain latest hour (hover to see other rain measurements)
** Current wind speed in m/s (hover to see current wind gust speed)